Location: Unspecified
(0.0000°N, 0.0000°E)
Time: 08:35:57
(UTC+00:00)

ISS - Pass Details

Date: 19 May 2021
Orbit: 417 x 422 km, 51.6° (Epoch: 21 June)

Event Time Altitude Azimuth Distance (km) Brightness Sun altitude
Exits shadow 05:06:53 12° 290° (WNW) 1,384 -1.6 -11.7°
Maximum altitude 05:09:25 26° 234° (SW) 865 -2.7 -11.1°
Drops below altitude 10° 05:12:18 10° 175° (S) 1,501 -1.1 -10.4°
Sets 05:14:37 0° 162° (SSE) 2,367 0.0 -9.8°
